UAL1089 KLAS-KSFO

Flight info

Callsign UAL1089
Flight time 1h 2m
Altitude 32000
Route JOHKR5 KENNO DCT RUSME DYAMD5
Aircraft A321/M-VGDW/C

Departure

Time 2026-05-03 22:15
Airport Harry Reid International Airport (KLAS)

Arrival

Time 2026-05-03 23:18
Airport San Francisco International Airport (KSFO)
Time Latitude Longitude Altitude Speed Heading
2026-05-03 22:00 36.08252 -115.15359 2116 ft 0 kts 65°
2026-05-03 22:04 36.08247 -115.15372 2117 ft 2 kts 74°
2026-05-03 22:04 36.08245 -115.15390 2117 ft 2 kts 88°
2026-05-03 22:04 36.08246 -115.15408 2118 ft 2 kts 101°
2026-05-03 22:05 36.08250 -115.15426 2118 ft 2 kts 114°
2026-05-03 22:05 36.08258 -115.15443 2119 ft 2 kts 127°
2026-05-03 22:05 36.08268 -115.15456 2119 ft 2 kts 140°
2026-05-03 22:05 36.08280 -115.15466 2119 ft 2 kts 153°
2026-05-03 22:06 36.08289 -115.15472 2119 ft 0 kts 160°
2026-05-03 22:07 36.08288 -115.15471 2119 ft 1 kts 159°
2026-05-03 22:07 36.08273 -115.15463 2119 ft 3 kts 156°
2026-05-03 22:08 36.08246 -115.15448 2119 ft 5 kts 155°
2026-05-03 22:08 36.08208 -115.15427 2119 ft 6 kts 155°
2026-05-03 22:08 36.08159 -115.15398 2120 ft 8 kts 154°
2026-05-03 22:08 36.08116 -115.15336 2119 ft 11 kts 110°
2026-05-03 22:09 36.08093 -115.15221 2115 ft 16 kts 102°
2026-05-03 22:09 36.08020 -115.15110 2112 ft 18 kts 171°
2026-05-03 22:09 36.07892 -115.15112 2115 ft 18 kts 174°
2026-05-03 22:10 36.07786 -115.14827 2106 ft 24 kts 95°
2026-05-03 22:10 36.07771 -115.14613 2101 ft 26 kts 93°
2026-05-03 22:10 36.07755 -115.14374 2092 ft 29 kts 90°
2026-05-03 22:10 36.07754 -115.14118 2085 ft 30 kts 87°
2026-05-03 22:11 36.07753 -115.13841 2076 ft 33 kts 89°
2026-05-03 22:11 36.07749 -115.13546 2067 ft 35 kts 92°
2026-05-03 22:11 36.07754 -115.13237 2057 ft 37 kts 90°
2026-05-03 22:11 36.07751 -115.12910 2049 ft 38 kts 90°
2026-05-03 22:12 36.07756 -115.12582 2043 ft 38 kts 91°
2026-05-03 22:12 36.07755 -115.12286 2038 ft 24 kts 91°
2026-05-03 22:12 36.07752 -115.12166 2038 ft 0 kts 108°
2026-05-03 22:13 36.07743 -115.12149 2038 ft 9 kts 134°
2026-05-03 22:13 36.07668 -115.12126 2039 ft 9 kts 201°
2026-05-03 22:14 36.07643 -115.12187 2040 ft 2 kts 269°
2026-05-03 22:14 36.07643 -115.12194 2040 ft 1 kts 269°
2026-05-03 22:14 36.07642 -115.12267 2040 ft 29 kts 270°
2026-05-03 22:14 36.07643 -115.12779 2049 ft 89 kts 271°
2026-05-03 22:15 36.07643 -115.13784 2075 ft 142 kts 267°
2026-05-03 22:15 36.07653 -115.15189 2241 ft 171 kts 267°
2026-05-03 22:15 36.07729 -115.16654 2673 ft 177 kts 270°
2026-05-03 22:15 36.07863 -115.18182 3169 ft 180 kts 271°
2026-05-03 22:16 36.07858 -115.19709 3682 ft 177 kts 256°
2026-05-03 22:16 36.07648 -115.21220 4023 ft 187 kts 253°
2026-05-03 22:16 36.07375 -115.22860 4332 ft 202 kts 254°
2026-05-03 22:16 36.07065 -115.24613 4637 ft 216 kts 246°
2026-05-03 22:17 36.06210 -115.26162 4929 ft 224 kts 213°
2026-05-03 22:17 36.04803 -115.27028 5286 ft 236 kts 197°
2026-05-03 22:17 36.03184 -115.27718 5679 ft 253 kts 197°
2026-05-03 22:17 36.01464 -115.28460 6068 ft 271 kts 197°
2026-05-03 22:18 35.99670 -115.29298 6664 ft 280 kts 201°
2026-05-03 22:18 35.97905 -115.30329 7391 ft 285 kts 205°
2026-05-03 22:18 35.96153 -115.31470 8115 ft 289 kts 206°
2026-05-03 22:18 35.94370 -115.32639 8818 ft 292 kts 206°
2026-05-03 22:19 35.92580 -115.33811 9507 ft 296 kts 206°
2026-05-03 22:19 35.90790 -115.35055 10168 ft 301 kts 214°
2026-05-03 22:19 35.89318 -115.36933 10620 ft 315 kts 237°
2026-05-03 22:19 35.88533 -115.39491 10903 ft 333 kts 262°
2026-05-03 22:20 35.88470 -115.42442 11067 ft 354 kts 272°
2026-05-03 22:20 35.88585 -115.45550 11072 ft 365 kts 273°
2026-05-03 22:20 35.88705 -115.48663 11075 ft 365 kts 272°
2026-05-03 22:20 35.88798 -115.51803 11076 ft 364 kts 272°
2026-05-03 22:21 35.88871 -115.54911 11076 ft 364 kts 271°
2026-05-03 22:21 35.88935 -115.58037 11127 ft 368 kts 271°
2026-05-03 22:21 35.88999 -115.61222 11611 ft 373 kts 271°
2026-05-03 22:21 35.89059 -115.64365 12410 ft 372 kts 271°
2026-05-03 22:22 35.89120 -115.67579 13109 ft 374 kts 271°
2026-05-03 22:22 35.89179 -115.70795 13735 ft 377 kts 271°
2026-05-03 22:22 35.89237 -115.74040 14359 ft 381 kts 270°
2026-05-03 22:22 35.89294 -115.77331 14980 ft 384 kts 270°
2026-05-03 22:23 35.89349 -115.80615 15584 ft 387 kts 270°
2026-05-03 22:23 35.89405 -115.83974 16186 ft 390 kts 270°
2026-05-03 22:23 35.89461 -115.87314 16770 ft 393 kts 270°
2026-05-03 22:23 35.89586 -115.90681 17334 ft 396 kts 277°
2026-05-03 22:24 35.90347 -115.93935 17878 ft 401 kts 295°
2026-05-03 22:24 35.91888 -115.96835 18443 ft 404 kts 311°
2026-05-03 22:24 35.93832 -115.99319 19012 ft 406 kts 315°
2026-05-03 22:24 35.95855 -116.01754 19519 ft 410 kts 315°
2026-05-03 22:25 35.97903 -116.04215 20031 ft 413 kts 315°
2026-05-03 22:25 35.99938 -116.06683 20545 ft 416 kts 315°
2026-05-03 22:25 36.01995 -116.09198 21051 ft 418 kts 315°
2026-05-03 22:25 36.04060 -116.11737 21545 ft 421 kts 315°
2026-05-03 22:26 36.06151 -116.14319 22035 ft 424 kts 314°
2026-05-03 22:26 36.08231 -116.16893 22507 ft 426 kts 314°
2026-05-03 22:26 36.10323 -116.19485 22968 ft 429 kts 314°
2026-05-03 22:26 36.12415 -116.22068 23406 ft 432 kts 314°
2026-05-03 22:27 36.14555 -116.24709 23838 ft 434 kts 314°
2026-05-03 22:27 36.16676 -116.27335 24260 ft 436 kts 314°
2026-05-03 22:27 36.18835 -116.30019 24678 ft 439 kts 314°
2026-05-03 22:27 36.20973 -116.32683 25078 ft 441 kts 314°
2026-05-03 22:28 36.23122 -116.35367 25467 ft 443 kts 314°
2026-05-03 22:28 36.25305 -116.38095 25866 ft 445 kts 314°
2026-05-03 22:28 36.27472 -116.40802 26369 ft 443 kts 314°
2026-05-03 22:28 36.29655 -116.43484 26911 ft 441 kts 315°
2026-05-03 22:29 36.31838 -116.46076 27407 ft 439 kts 316°
2026-05-03 22:29 36.34053 -116.48690 27877 ft 438 kts 315°
2026-05-03 22:29 36.36227 -116.51263 28323 ft 436 kts 315°
2026-05-03 22:29 36.38411 -116.53860 28755 ft 435 kts 315°
2026-05-03 22:30 36.40594 -116.56464 29176 ft 434 kts 315°
2026-05-03 22:30 36.42749 -116.59039 29580 ft 433 kts 315°
2026-05-03 22:30 36.44921 -116.61626 29978 ft 432 kts 316°
2026-05-03 22:30 36.47116 -116.64143 30363 ft 430 kts 317°
2026-05-03 22:31 36.49313 -116.66625 30734 ft 429 kts 316°
2026-05-03 22:31 36.51520 -116.69131 31096 ft 428 kts 316°
2026-05-03 22:31 36.53697 -116.71609 31446 ft 427 kts 316°
2026-05-03 22:31 36.55877 -116.74094 31743 ft 426 kts 316°
2026-05-03 22:32 36.58082 -116.76607 31795 ft 430 kts 316°
2026-05-03 22:32 36.62524 -116.81673 31802 ft 437 kts 316°
2026-05-03 22:33 36.66985 -116.86773 31806 ft 437 kts 316°
2026-05-03 22:33 36.71529 -116.91743 31825 ft 439 kts 320°
2026-05-03 22:34 36.76545 -116.96129 31862 ft 440 kts 328°
2026-05-03 22:34 36.81886 -116.99793 31901 ft 441 kts 332°
2026-05-03 22:35 36.87322 -117.03289 31926 ft 442 kts 332°
2026-05-03 22:35 36.92791 -117.06824 31937 ft 441 kts 332°
2026-05-03 22:36 36.98246 -117.10370 31938 ft 442 kts 333°
2026-05-03 22:36 37.03714 -117.13945 31941 ft 445 kts 334°
2026-05-03 22:37 37.09195 -117.17527 31943 ft 442 kts 336°
2026-05-03 22:37 37.14580 -117.21034 31942 ft 433 kts 337°
2026-05-03 22:38 37.19913 -117.24506 31941 ft 435 kts 337°
2026-05-03 22:38 37.25250 -117.28010 31941 ft 435 kts 336°
2026-05-03 22:39 37.30425 -117.31969 31943 ft 439 kts 329°
2026-05-03 22:39 37.35251 -117.36713 31942 ft 441 kts 324°
2026-05-03 22:40 37.39886 -117.41734 31938 ft 440 kts 323°
2026-05-03 22:40 37.44439 -117.46900 31920 ft 444 kts 317°
2026-05-03 22:41 37.48027 -117.53274 31904 ft 452 kts 301°
2026-05-03 22:41 37.50138 -117.60679 31890 ft 455 kts 284°
2026-05-03 22:42 37.50933 -117.68602 31879 ft 456 kts 277°
2026-05-03 22:42 37.51518 -117.76569 31865 ft 456 kts 277°
2026-05-03 22:43 37.52129 -117.84501 31852 ft 456 kts 278°
2026-05-03 22:43 37.52753 -117.92394 31840 ft 456 kts 278°
2026-05-03 22:44 37.53385 -118.00361 31835 ft 456 kts 278°
2026-05-03 22:44 37.54014 -118.08328 31833 ft 456 kts 278°
2026-05-03 22:45 37.54634 -118.16225 31833 ft 456 kts 278°
2026-05-03 22:45 37.55253 -118.24196 31833 ft 455 kts 278°
2026-05-03 22:46 37.55863 -118.32119 31833 ft 456 kts 278°
2026-05-03 22:46 37.56471 -118.40086 31839 ft 456 kts 278°
2026-05-03 22:47 37.57068 -118.47980 31868 ft 455 kts 278°
2026-05-03 22:47 37.57665 -118.55951 31628 ft 455 kts 278°
2026-05-03 22:47 37.57958 -118.59893 31378 ft 455 kts 278°
2026-05-03 22:48 37.58254 -118.63875 31128 ft 455 kts 278°
2026-05-03 22:48 37.58546 -118.67841 30876 ft 456 kts 277°
2026-05-03 22:48 37.58839 -118.71854 30625 ft 455 kts 277°
2026-05-03 22:48 37.59128 -118.75841 30373 ft 456 kts 277°
2026-05-03 22:49 37.59418 -118.79826 30122 ft 456 kts 277°
2026-05-03 22:49 37.59706 -118.83811 29873 ft 456 kts 277°
2026-05-03 22:49 37.59989 -118.87753 29625 ft 457 kts 277°
2026-05-03 22:49 37.60278 -118.91770 29373 ft 457 kts 277°
2026-05-03 22:50 37.60563 -118.95775 29123 ft 458 kts 277°
2026-05-03 22:50 37.60843 -118.99727 28876 ft 458 kts 277°
2026-05-03 22:50 37.61124 -119.03715 28626 ft 457 kts 277°
2026-05-03 22:50 37.61406 -119.07732 28376 ft 458 kts 277°
2026-05-03 22:51 37.61689 -119.11753 28123 ft 457 kts 277°
2026-05-03 22:51 37.61965 -119.15718 27875 ft 458 kts 277°
2026-05-03 22:51 37.62245 -119.19765 27620 ft 458 kts 277°
2026-05-03 22:51 37.62519 -119.23755 27372 ft 458 kts 277°
2026-05-03 22:52 37.62795 -119.27791 27123 ft 458 kts 277°
2026-05-03 22:52 37.63066 -119.31747 27020 ft 458 kts 277°
2026-05-03 22:52 37.63338 -119.35744 27011 ft 459 kts 277°
2026-05-03 22:52 37.63610 -119.39771 27009 ft 459 kts 277°
2026-05-03 22:53 37.63878 -119.43787 27008 ft 459 kts 277°
2026-05-03 22:53 37.64148 -119.47832 27010 ft 459 kts 277°
2026-05-03 22:53 37.64414 -119.51822 27009 ft 459 kts 277°
2026-05-03 22:53 37.64681 -119.55855 27010 ft 459 kts 277°
2026-05-03 22:54 37.64945 -119.59868 27004 ft 458 kts 277°
2026-05-03 22:54 37.65204 -119.63835 26993 ft 458 kts 277°
2026-05-03 22:54 37.65466 -119.67866 26982 ft 458 kts 276°
2026-05-03 22:54 37.65723 -119.71876 26969 ft 458 kts 276°
2026-05-03 22:55 37.65976 -119.75826 26955 ft 458 kts 276°
2026-05-03 22:55 37.66235 -119.79875 26941 ft 458 kts 276°
2026-05-03 22:55 37.66489 -119.83874 26933 ft 458 kts 276°
2026-05-03 22:55 37.66741 -119.87846 26929 ft 458 kts 276°
2026-05-03 22:56 37.66989 -119.91818 26921 ft 445 kts 276°
2026-05-03 22:56 37.67229 -119.95660 26929 ft 433 kts 276°
2026-05-03 22:56 37.67464 -119.99442 26932 ft 433 kts 276°
2026-05-03 22:56 37.67696 -120.03186 26936 ft 434 kts 276°
2026-05-03 22:57 37.67933 -120.07013 26943 ft 433 kts 276°
2026-05-03 22:57 37.68165 -120.10787 26947 ft 433 kts 276°
2026-05-03 22:57 37.68396 -120.14597 26953 ft 432 kts 276°
2026-05-03 22:57 37.68624 -120.18362 26956 ft 432 kts 276°
2026-05-03 22:58 37.68849 -120.22112 26963 ft 432 kts 276°
2026-05-03 22:58 37.69076 -120.25922 26968 ft 432 kts 276°
2026-05-03 22:58 37.69299 -120.29662 26974 ft 432 kts 276°
2026-05-03 22:58 37.69523 -120.33439 26976 ft 432 kts 276°
2026-05-03 22:59 37.69721 -120.37260 26977 ft 432 kts 274°
2026-05-03 22:59 37.69718 -120.41063 26978 ft 434 kts 269°
2026-05-03 22:59 37.69473 -120.44862 26424 ft 441 kts 265°
2026-05-03 22:59 37.69044 -120.48725 25826 ft 441 kts 263°
2026-05-03 23:00 37.68583 -120.52502 25316 ft 438 kts 263°
2026-05-03 23:00 37.68115 -120.56325 24777 ft 437 kts 263°
2026-05-03 23:00 37.67660 -120.60097 24232 ft 435 kts 263°
2026-05-03 23:00 37.67210 -120.63869 23641 ft 435 kts 263°
2026-05-03 23:01 37.66765 -120.67626 23065 ft 433 kts 262°
2026-05-03 23:01 37.66320 -120.71399 22580 ft 428 kts 262°
2026-05-03 23:01 37.65889 -120.75047 22159 ft 421 kts 262°
2026-05-03 23:01 37.65461 -120.78642 21941 ft 410 kts 262°
2026-05-03 23:02 37.65038 -120.82160 21915 ft 399 kts 262°
2026-05-03 23:02 37.64624 -120.85593 21527 ft 396 kts 262°
2026-05-03 23:02 37.64212 -120.88992 20937 ft 397 kts 262°
2026-05-03 23:02 37.63795 -120.92442 20446 ft 394 kts 262°
2026-05-03 23:03 37.63381 -120.95845 19996 ft 390 kts 262°
2026-05-03 23:03 37.62958 -120.99165 19538 ft 388 kts 262°
2026-05-03 23:03 37.62513 -121.02517 19056 ft 385 kts 261°
2026-05-03 23:03 37.62072 -121.05807 18583 ft 383 kts 261°
2026-05-03 23:04 37.61625 -121.09124 18108 ft 380 kts 261°
2026-05-03 23:04 37.61189 -121.12363 17635 ft 378 kts 261°
2026-05-03 23:04 37.60749 -121.15621 17162 ft 375 kts 261°
2026-05-03 23:04 37.60310 -121.18864 16693 ft 373 kts 261°
2026-05-03 23:05 37.59878 -121.22060 16231 ft 371 kts 261°
2026-05-03 23:05 37.59446 -121.25246 15775 ft 368 kts 261°
2026-05-03 23:05 37.59036 -121.28419 15326 ft 365 kts 262°
2026-05-03 23:05 37.58670 -121.31599 14874 ft 362 kts 262°
2026-05-03 23:06 37.58321 -121.34716 14427 ft 359 kts 262°
2026-05-03 23:06 37.57970 -121.37830 13982 ft 357 kts 262°
2026-05-03 23:06 37.57621 -121.40887 13543 ft 354 kts 262°
2026-05-03 23:06 37.57268 -121.43947 13100 ft 351 kts 262°
2026-05-03 23:07 37.56915 -121.46986 12658 ft 348 kts 262°
2026-05-03 23:07 37.56565 -121.49991 12224 ft 346 kts 262°
2026-05-03 23:07 37.56216 -121.52973 11791 ft 343 kts 262°
2026-05-03 23:07 37.55870 -121.55917 11356 ft 340 kts 262°
2026-05-03 23:08 37.55524 -121.58862 11030 ft 334 kts 262°
2026-05-03 23:08 37.55163 -121.61736 10731 ft 328 kts 260°
2026-05-03 23:08 37.54641 -121.64486 10414 ft 323 kts 253°
2026-05-03 23:08 37.54019 -121.67185 10086 ft 318 kts 252°
2026-05-03 23:09 37.53378 -121.69827 9763 ft 313 kts 252°
2026-05-03 23:09 37.52743 -121.72438 9447 ft 308 kts 252°
2026-05-03 23:09 37.52124 -121.74996 9139 ft 304 kts 251°
2026-05-03 23:09 37.51521 -121.77506 8837 ft 299 kts 252°
2026-05-03 23:10 37.50921 -121.80012 8539 ft 295 kts 251°
2026-05-03 23:10 37.50330 -121.82471 8246 ft 290 kts 251°
2026-05-03 23:10 37.49753 -121.84870 7964 ft 286 kts 251°
2026-05-03 23:10 37.49256 -121.87282 7676 ft 283 kts 260°
2026-05-03 23:11 37.49176 -121.89738 7403 ft 279 kts 271°
2026-05-03 23:11 37.49307 -121.92154 7136 ft 275 kts 274°
2026-05-03 23:11 37.49471 -121.94522 6874 ft 271 kts 274°
2026-05-03 23:11 37.49631 -121.96893 6613 ft 267 kts 273°
2026-05-03 23:12 37.49777 -121.99195 6359 ft 263 kts 272°
2026-05-03 23:12 37.49912 -122.01492 6114 ft 259 kts 272°
2026-05-03 23:12 37.50042 -122.03721 5865 ft 255 kts 272°
2026-05-03 23:12 37.50166 -122.05913 5619 ft 251 kts 272°
2026-05-03 23:13 37.50292 -122.08113 5373 ft 247 kts 272°
2026-05-03 23:13 37.50615 -122.10215 5114 ft 246 kts 290°
2026-05-03 23:13 37.51347 -122.12134 4879 ft 243 kts 296°
2026-05-03 23:13 37.52161 -122.13995 4645 ft 239 kts 297°
2026-05-03 23:14 37.52943 -122.15790 4378 ft 232 kts 299°
2026-05-03 23:14 37.53705 -122.17570 3923 ft 228 kts 299°
2026-05-03 23:14 37.54461 -122.19299 3577 ft 222 kts 295°
2026-05-03 23:14 37.55169 -122.20968 3241 ft 213 kts 295°
2026-05-03 23:15 37.55858 -122.22604 2809 ft 209 kts 295°
2026-05-03 23:15 37.56530 -122.24210 2382 ft 204 kts 295°
2026-05-03 23:15 37.57189 -122.25781 1934 ft 201 kts 295°
2026-05-03 23:15 37.57824 -122.27268 1799 ft 182 kts 295°
2026-05-03 23:16 37.58376 -122.28564 1780 ft 154 kts 294°
2026-05-03 23:16 37.58855 -122.29691 1650 ft 145 kts 295°
2026-05-03 23:16 37.59341 -122.30792 1288 ft 144 kts 293°
2026-05-03 23:16 37.59781 -122.31915 907 ft 142 kts 292°
2026-05-03 23:17 37.60229 -122.33001 587 ft 137 kts 293°
2026-05-03 23:17 37.60673 -122.34056 384 ft 138 kts 293°
2026-05-03 23:17 37.61122 -122.35140 227 ft 138 kts 293°
2026-05-03 23:17 37.61560 -122.36195 64 ft 136 kts 294°
2026-05-03 23:18 37.61960 -122.37176 16 ft 109 kts 298°
2026-05-03 23:18 37.62194 -122.37759 26 ft 36 kts 282°
2026-05-03 23:18 37.62217 -122.37990 31 ft 16 kts 277°
2026-05-03 23:18 37.62223 -122.38061 31 ft 2 kts 276°
2026-05-03 23:19 37.62226 -122.38097 31 ft 7 kts 276°
2026-05-03 23:19 37.62229 -122.38185 30 ft 17 kts 269°
2026-05-03 23:19 37.62219 -122.38373 31 ft 22 kts 263°
2026-05-03 23:19 37.62210 -122.38548 31 ft 18 kts 268°
2026-05-03 23:20 37.62170 -122.38650 32 ft 9 kts 240°
2026-05-03 23:20 37.62188 -122.38733 31 ft 11 kts 297°
2026-05-03 23:20 37.62226 -122.38834 31 ft 14 kts 297°
2026-05-03 23:20 37.62235 -122.38937 30 ft 9 kts 224°
2026-05-03 23:21 37.62175 -122.38983 32 ft 8 kts 208°
2026-05-03 23:21 37.62154 -122.38998 32 ft 0 kts 209°